Duluth, MN

2:50 PM CST on January 18, 2017 (GMT -0600)
Duluth International

Weather History for KDLH - February, 2014

Change the Weather History Date:

Wednesday, February 12, 2014

  Actual Average Record
Temperature  
Mean Temperature 13 °F 14 °F  
Max Temperature 16 °F 23 °F 45 °F (1976)
Min Temperature 9 °F 5 °F -33 °F (1875)
Degree Days  
Heating Degree Days 52 51  
Month to date heating degree days 769 630  
Since 1 July heating degree days 6547 6098  
Cooling Degree Days 0 0  
Month to date cooling degree days 0 0  
Year to date cooling degree days 0 0  
Moisture  
Dew Point 3 °F    
Average Humidity 65    
Maximum Humidity 83    
Minimum Humidity 46    
Precipitation  
Precipitation T in 0.02 in 0.37 in (1922)
Month to date precipitation 0.05 0.28  
Year to date precipitation 0.78 1.24  
Snow  
Snow 0.20 in 0.40 in 2.60 in (1994)
Month to date snowfall 1.9 4.9  
Since 1 July snowfall 56.2 58.1  
Snow Depth 19.00 in    
Sea Level Pressure  
Sea Level Pressure 30.00 in    
Wind  
Wind Speed 9 mph (WSW)    
Max Wind Speed 16 mph    
Max Gust Speed 22 mph    
Visibility 7 miles    
Events Snow    
T = Trace of Precipitation, MM = Missing Value Source: NWS Daily Summary

Daily Weather History Graph

Daily Weather History Graph

Search for Another Location

Airport or City:

Trip Planner

Search our weather history database for the weather conditions in past years. The results will help you decide how hot, cold, wet, or windy it might be!

Date:

Astronomy

Feb. 12, 2014 Rise Set
Actual Time 7:17 AM CST 5:29 PM CST
Civil Twilight 6:46 AM CST 6:00 PM CST
Nautical Twilight 6:10 AM CST 6:36 PM CST
Astronomical Twilight 5:35 AM CST 7:11 PM CST
Moon 3:40 PM CST (2/12) 5:38 AM CST (2/12)
Length of Visible Light 11h 14m
Length of Day
10h 11m
Waxing Gibbous, 95% of the Moon is Illuminated
Feb 12
Waxing Gibbous
Feb 14
Full
Feb 22
Last Quarter
Mar 1
New
Mar 8
First Quarter

Hourly Weather History & Observations

Time (CST) Temp. Windchill Dew Point Humidity Pressure Visibility Wind Dir Wind Speed Gust Speed Precip Events Conditions
12:55 AM 10.0 °F -7.1 °F 3.9 °F 76% 30.04 in 3.0 mi SW 16.1 mph - 0.00 in Snow Light Snow
1:05 AM 10.0 °F -5.9 °F 3.9 °F 76% 29.93 in 2.5 mi SW 13.8 mph - 0.00 in Snow Light Snow
1:40 AM 10.0 °F -6.5 °F 5.0 °F 80% 29.94 in 2.5 mi SW 15.0 mph 20.7 mph 0.00 in Snow Light Snow
1:55 AM 10.0 °F -6.5 °F 5.0 °F 80% 30.05 in 2.0 mi SW 15.0 mph - 0.00 in Snow Light Snow
2:55 AM 10.0 °F -5.9 °F 5.0 °F 80% 30.05 in 2.0 mi SW 13.8 mph - 0.00 in Snow Light Snow
3:02 AM 10.0 °F -5.9 °F 5.0 °F 80% 29.95 in 1.8 mi WSW 13.8 mph - 0.00 in Snow Light Snow
3:55 AM 10.0 °F -3.7 °F 6.1 °F 84% 30.05 in 1.5 mi WSW 10.4 mph - 0.00 in Snow Light Snow
4:45 AM 10.9 °F -3.4 °F 6.1 °F 81% 29.96 in 2.0 mi WSW 11.5 mph - 0.00 in Snow Light Snow
4:55 AM 10.9 °F -3.4 °F 6.1 °F 81% 30.07 in 3.0 mi WSW 11.5 mph - 0.00 in Snow Light Snow
5:55 AM 10.9 °F -2.6 °F 7.0 °F 84% 30.09 in 3.0 mi West 10.4 mph - 0.00 in Snow Light Snow
6:55 AM 10.0 °F -2.9 °F 6.1 °F 84% 30.09 in 4.0 mi West 9.2 mph - 0.00 in Snow Light Snow
7:19 AM 10.0 °F -2.9 °F 6.1 °F 84% 29.99 in 3.0 mi West 9.2 mph - 0.00 in Snow Light Snow
7:26 AM 10.0 °F -1.9 °F 6.1 °F 84% 29.99 in 2.0 mi West 8.1 mph - 0.00 in Snow Light Snow
7:35 AM 10.0 °F -2.9 °F 6.1 °F 84% 29.99 in 4.0 mi West 9.2 mph - 0.00 in Snow Light Snow
7:55 AM 10.9 °F -2.6 °F 6.1 °F 81% 30.10 in 5.0 mi WNW 10.4 mph - 0.00 in Snow Light Snow
8:02 AM 10.9 °F -1.8 °F 6.1 °F 81% 30.00 in 7.0 mi WNW 9.2 mph - 0.00 in   Scattered Clouds
8:55 AM 10.0 °F -3.7 °F -0.0 °F 64% 30.10 in 10.0 mi NW 10.4 mph - 0.00 in   Partly Cloudy
9:55 AM 9.0 °F -5.9 °F -2.0 °F 61% 30.11 in 10.0 mi WNW 11.5 mph - N/A   Partly Cloudy
10:55 AM 10.0 °F -2.9 °F -2.9 °F 56% 30.12 in 10.0 mi NW 9.2 mph - N/A   Clear
11:55 AM 12.0 °F -0.4 °F -2.9 °F 51% 30.09 in 10.0 mi NW 9.2 mph - N/A   Partly Cloudy
12:55 PM 15.1 °F 5.2 °F -2.0 °F 47% 30.06 in 10.0 mi WNW 6.9 mph - N/A   Scattered Clouds
1:55 PM 15.1 °F 4.2 °F -2.9 °F 45% 30.04 in 10.0 mi NW 8.1 mph - N/A   Scattered Clouds
2:55 PM 15.1 °F 2.5 °F -0.9 °F 49% 30.02 in 10.0 mi West 10.4 mph - N/A   Partly Cloudy
3:55 PM 16.0 °F 7.4 °F -2.0 °F 45% 30.01 in 10.0 mi West 5.8 mph - N/A   Partly Cloudy
4:55 PM 14.0 °F 6.5 °F -0.9 °F 52% 30.00 in 10.0 mi West 4.6 mph - N/A   Partly Cloudy
5:55 PM 14.0 °F - -2.0 °F 49% 29.99 in 10.0 mi Calm Calm - N/A   Partly Cloudy
6:55 PM 14.0 °F 8.2 °F -2.0 °F 49% 29.99 in 10.0 mi North 3.5 mph - N/A   Clear
7:55 PM 12.0 °F - -0.9 °F 56% 29.97 in 10.0 mi Calm Calm - N/A   Partly Cloudy
8:55 PM 12.9 °F 6.9 °F -0.0 °F 56% 29.94 in 10.0 mi SE 3.5 mph - N/A   Partly Cloudy
9:55 PM 12.9 °F 1.6 °F 1.0 °F 59% 29.91 in 10.0 mi SE 8.1 mph - N/A   Partly Cloudy
10:55 PM 12.9 °F 3.8 °F 3.0 °F 65% 29.89 in 10.0 mi SE 5.8 mph - N/A   Mostly Cloudy
11:16 PM 15.1 °F 1.8 °F 3.9 °F 61% 29.78 in 10.0 mi SE 11.5 mph - N/A   Mostly Cloudy
11:42 PM 14.0 °F 0.5 °F 6.1 °F 71% 29.75 in 10.0 mi SE 11.5 mph - N/A   Mostly Cloudy
11:55 PM 14.0 °F 0.5 °F 6.1 °F 71% 29.84 in 10.0 mi SSE 11.5 mph - N/A   Mostly Cloudy